sat.trackr.live / text

‹ back to catalog

STARLINK-5787

NORAD 56004 · 2023-042U

PAYLOAD ACTIVE UNKNOWN

§ Identity

Operator
Country
US
Launch date
2023-03-24
Launch site
AFETR
Launch vehicle
Mass (kg)
RCS (m²)

Purposes: comms

External: N2YO · Heavens-Above · Gunter

§ Orbital elements

Epoch: 2026-05-24T23:10:01.579584Z

Period
94.27 min
Inclination
43.0061°
Eccentricity
0.0001647
Mean motion
15.27575012 rev/d
Perigee alt
481.9 km
Apogee alt
484.2 km
Semi-major
6,861.2 km
B*
-1.5732e-5
RAAN
352.3541°
Arg perigee
264.1598°
Mean anomaly
95.9066°
Rev number
17,449

§ Raw data

STARLINK-57871 56004U 23042U   26144.96529606 -.00000695  00000+0 -15732-4 0  99992 56004  43.0061 352.3541 0001647 264.1598  95.9066 15.27575012174492

JSON: /api/v1/satellites/56004 · /tle

For live sub-satellite position, see the globe view (requires WebGL).

§ Visibility from observer

Set your observer location to see the next 7 days of passes ≥ 10°. The values pass through the URL so the page stays shareable.

No JS? Fill the form by hand. The geolocation button needs JavaScript.